Total_Precipitation_Accumulation
1.35 1.45 1.58 1.73 1.81 1.85 1.82 1.68 1.63 1.57 1.54 1.59 1.59 1.61 1.65 1.68 1.69 1.68 1.63 1.57 1.57 1.54 1.52 1.53 1.47 1.39 1.39 1.39 1.43 1.47 1.54 1.68 1.67 1.21 1.02 0.99 1.01 0.99 1.00 0.94 0.87 0.86 0.83
1.21 1.26 1.31 1.43 1.58 1.65 1.71 1.63 1.50 1.46 1.38 1.38 1.38 1.36 1.34 1.35 1.41 1.43 1.42 1.41 1.42 1.40 1.38 1.42 1.43 1.41 1.41 1.36 1.35 1.34 1.31 1.32 1.42 1.26 0.98 0.95 0.95 0.93 0.98 1.00 0.94 0.86 0.78
1.09 1.10 1.17 1.27 1.37 1.42 1.42 1.47 1.42 1.44 1.34 1.27 1.24 1.22 1.19 1.18 1.18 1.22 1.28 1.29 1.30 1.29 1.28 1.30 1.31 1.37 1.35 1.26 1.21 1.19 1.17 1.19 1.28 1.29 1.07 0.94 0.92 0.92 0.99 1.00 0.96 0.93 0.86
1.05 1.01 1.06 1.10 1.23 1.28 1.25 1.27 1.28 1.32 1.33 1.23 1.16 1.13 1.11 1.13 1.13 1.15 1.22 1.28 1.27 1.26 1.27 1.28 1.24 1.23 1.19 1.15 1.14 1.14 1.21 1.31 1.34 1.38 1.27 1.07 0.99 0.95 1.02 1.02 1.01 0.94 0.95
1.01 0.98 0.99 0.99 1.06 1.12 1.09 1.11 1.15 1.19 1.27 1.24 1.18 1.15 1.12 1.12 1.15 1.17 1.20 1.24 1.26 1.27 1.23 1.20 1.18 1.20 1.17 1.15 1.17 1.17 1.24 1.40 1.52 1.57 1.46 1.28 1.16 1.08 1.03 0.98 1.07 1.08 1.10
0.92 0.93 0.93 0.93 0.97 1.04 1.02 1.02 1.05 1.12 1.22 1.26 1.26 1.22 1.18 1.18 1.36 1.33 1.24 1.22 1.24 1.24 1.22 1.15 1.13 1.18 1.14 1.16 1.18 1.25 1.39 1.55 1.70 1.73 1.64 1.43 1.16 1.03 1.04 1.17 1.33 1.52 1.47
0.85 0.88 0.91 0.95 0.98 1.02 1.02 1.02 1.07 1.14 1.25 1.30 1.32 1.32 1.28 1.33 1.40 1.27 1.25 1.16 1.14 1.14 1.13 1.10 1.05 1.01 1.07 0.99 1.07 1.19 1.28 1.41 1.49 1.50 1.47 1.21 1.06 1.02 1.25 1.53 1.56 1.61 1.40
0.75 0.83 0.86 0.91 0.93 0.94 1.00 1.03 1.08 1.13 1.20 1.29 1.34 1.30 1.24 1.25 1.27 1.16 1.13 1.05 1.05 1.04 1.02 1.02 1.03 1.01 1.01 1.07 1.14 1.19 1.07 1.00 1.04 1.04 1.07 1.05 1.07 1.19 1.49 1.82 1.93 1.94 1.68
0.70 0.82 0.87 0.94 0.97 0.98 1.04 1.05 1.07 1.13 1.16 1.15 1.19 1.21 1.17 1.17 1.15 1.06 1.03 0.96 0.99 0.93 0.89 0.90 0.93 0.94 1.11 1.28 1.33 1.34 1.13 0.92 0.93 1.06 1.18 1.21 1.29 1.40 1.53 1.87 2.16 2.29 2.00
0.69 0.78 0.85 0.94 1.06 1.09 1.09 1.07 1.03 1.07 1.13 1.09 1.05 1.04 1.01 1.01 1.06 0.99 0.96 0.90 0.93 0.88 0.84 0.84 0.94 0.97 1.14 1.28 1.23 1.30 1.26 1.04 0.98 1.02 1.09 1.13 1.11 1.21 1.45 1.62 2.13 2.70 2.41
0.73 0.78 0.82 0.86 0.94 1.01 1.01 1.01 1.01 0.99 0.99 0.95 0.91 0.90 0.87 0.88 0.92 0.89 0.88 0.85 0.87 0.87 0.82 0.77 0.78 1.01 1.14 1.22 1.17 1.06 1.16 1.23 1.15 1.13 1.14 1.14 1.14 1.19 1.27 1.40 1.76 2.55 2.91
0.69 0.76 0.84 0.84 0.86 0.90 0.92 0.95 0.98 0.95 0.92 0.87 0.82 0.81 0.77 0.77 0.81 0.82 0.85 0.89 0.96 0.89 0.79 0.71 0.76 0.97 1.01 1.04 1.01 1.07 1.24 1.25 1.12 1.24 1.32 1.30 1.26 1.26 1.30 1.37 1.50 1.73 2.06
0.68 0.74 0.80 0.81 0.84 0.87 0.87 0.89 0.89 0.88 0.84 0.80 0.76 0.74 0.72 0.71 0.77 0.85 0.86 0.92 0.97 0.89 0.81 0.85 0.88 0.91 0.89 0.89 1.00 1.14 1.13 1.04 1.17 1.40 1.43 1.35 1.35 1.43 1.49 1.54 1.53 1.56 1.62
0.66 0.69 0.72 0.77 0.78 0.78 0.80 0.83 0.87 0.88 0.85 0.79 0.76 0.74 0.70 0.67 0.68 0.72 0.80 0.85 0.88 0.89 0.89 0.89 0.86 0.84 0.84 0.87 0.95 0.97 0.97 1.06 1.32 1.51 1.51 1.43 1.43 1.54 1.64 1.73 1.85 1.81 1.83
0.61 0.63 0.64 0.66 0.70 0.74 0.75 0.79 0.85 0.86 0.93 0.96 0.90 0.84 0.82 0.77 0.72 0.84 0.91 0.88 0.90 0.91 0.93 0.85 0.79 0.78 0.79 0.80 0.83 0.86 0.93 1.08 1.24 1.31 1.48 1.56 1.54 1.58 1.67 1.78 1.94 1.96 1.90
0.54 0.57 0.59 0.61 0.64 0.67 0.70 0.71 0.79 0.82 0.89 0.92 0.94 0.96 0.89 0.87 0.87 0.88 0.88 0.92 0.96 0.99 0.98 0.91 0.84 0.81 0.83 0.84 0.86 0.90 0.94 1.08 1.25 1.44 1.58 1.70 1.79 1.82 1.86 1.85 1.88 1.91 1.78
0.51 0.54 0.55 0.56 0.59 0.63 0.65 0.67 0.69 0.71 0.73 0.77 0.84 0.90 0.92 0.95 0.92 0.87 0.87 0.89 0.90 0.96 0.94 0.90 0.88 0.89 0.90 0.92 0.95 1.01 1.05 1.10 1.36 1.62 1.77 1.85 1.97 2.01 1.98 1.89 1.74 1.63 1.47
0.43 0.49 0.52 0.51 0.54 0.57 0.61 0.64 0.67 0.68 0.67 0.67 0.73 0.83 0.88 0.90 0.90 0.89 0.90 0.86 0.82 0.81 0.85 0.94 1.00 1.02 1.03 1.04 1.08 1.18 1.26 1.32 1.48 1.68 1.79 1.89 2.05 2.13 1.98 1.73 1.52 1.40 1.30
0.38 0.41 0.45 0.48 0.50 0.53 0.55 0.57 0.61 0.63 0.64 0.62 0.60 0.67 0.77 0.81 0.85 0.89 0.85 0.76 0.74 0.76 0.81 0.91 0.99 1.05 1.09 1.11 1.16 1.27 1.43 1.57 1.65 1.82 1.91 1.99 2.07 2.06 1.79 1.43 1.22 1.09 1.10
0.37 0.42 0.45 0.45 0.45 0.47 0.48 0.51 0.53 0.56 0.59 0.59 0.58 0.62 0.66 0.72 0.73 0.72 0.72 0.73 0.73 0.73 0.76 0.86 0.92 1.00 1.10 1.21 1.29 1.39 1.55 1.63 1.72 1.83 1.94 1.96 1.86 1.74 1.54 1.24 1.10 1.09 1.03
0.37 0.39 0.44 0.42 0.40 0.42 0.45 0.47 0.50 0.54 0.56 0.56 0.58 0.64 0.78 0.81 0.74 0.68 0.69 0.72 0.75 0.78 0.81 0.88 0.94 1.02 1.14 1.27 1.40 1.46 1.55 1.62 1.72 1.85 1.85 1.72 1.56 1.39 1.17 1.12 1.08 1.06 1.05
0.37 0.39 0.40 0.41 0.41 0.43 0.47 0.49 0.52 0.53 0.52 0.51 0.50 0.55 0.68 0.66 0.62 0.62 0.64 0.66 0.69 0.73 0.77 0.86 0.90 0.96 1.20 1.51 1.75 1.81 1.69 1.60 1.62 1.70 1.64 1.43 1.26 1.15 1.10 1.11 1.09 1.09 1.08
0.36 0.39 0.40 0.41 0.43 0.50 0.52 0.47 0.48 0.50 0.50 0.49 0.50 0.51 0.54 0.57 0.57 0.58 0.59 0.60 0.61 0.64 0.67 0.76 0.86 0.89 1.03 1.40 1.77 2.14 2.23 1.98 1.80 1.79 1.80 1.56 1.29 1.19 1.19 1.18 1.11 1.11 1.04
0.36 0.38 0.41 0.41 0.43 0.47 0.49 0.48 0.48 0.49 0.49 0.49 0.49 0.51 0.53 0.56 0.55 0.54 0.54 0.58 0.60 0.60 0.62 0.70 0.79 0.88 1.01 1.34 1.64 1.83 2.00 2.11 2.17 2.10 1.97 1.83 1.50 1.25 1.21 1.17 1.06 1.01 1.00
0.37 0.41 0.43 0.44 0.45 0.47 0.48 0.49 0.48 0.48 0.49 0.50 0.50 0.51 0.51 0.51 0.50 0.49 0.49 0.52 0.55 0.55 0.54 0.60 0.73 0.88 1.06 1.29 1.54 1.71 1.81 1.88 1.84 1.79 1.72 1.60 1.39 1.17 1.15 1.14 1.04 0.98 0.96
0.40 0.43 0.44 0.45 0.46 0.47 0.49 0.49 0.47 0.47 0.49 0.48 0.49 0.50 0.51 0.51 0.51 0.50 0.50 0.51 0.52 0.50 0.49 0.52 0.62 0.80 1.01 1.22 1.40 1.62 1.68 1.53 1.31 1.23 1.34 1.42 1.29 1.10 1.08 1.14 1.05 1.00 0.97